This is the latest recevied weather packets stored in our database for station/object K7TUS-6. If no packets are shown the sender has not sent any weather packets the latest 10 day(s).
| Time | Temp. | Humidity | Pressure | Rain* | Wind** | Luminosity | Snow |
|---|---|---|---|---|---|---|---|
| 1777487705 | 18.89° C | 1% | 986.2 hPa | - | - | - | - |
| 1777487404 | 19.44° C | 1% | 987.4 hPa | - | - | - | - |
| 1777487110 | 18.89° C | 1% | 986.7 hPa | - | - | - | - |
| 1777486809 | 18.89° C | 1% | 986.7 hPa | - | - | - | - |
| 1777486508 | 18.89° C | 1% | 985.6 hPa | - | - | - | - |
| 1777486208 | 18.89° C | 1% | 985.6 hPa | - | - | - | - |
| 1777485907 | 18.89° C | 1% | 985.6 hPa | - | - | - | - |
| 1777485607 | 18.33° C | 1% | 986.5 hPa | - | - | - | - |
| 1777485306 | 18.33° C | 1% | 987.3 hPa | - | - | - | - |
| 1777485005 | 17.78° C | 1% | 986.7 hPa | - | - | - | - |
| 1777484705 | 17.78° C | 1% | 986 hPa | - | - | - | - |
| 1777484410 | 17.78° C | 1% | 985.6 hPa | - | - | - | - |
| 1777484110 | 18.33° C | 1% | 985.1 hPa | - | - | - | - |
| 1777483809 | 18.33° C | 1% | 986 hPa | - | - | - | - |
| 1777483509 | 18.33° C | 1% | 985.8 hPa | - | - | - | - |
| 1777483208 | 18.89° C | 1% | 986.5 hPa | - | - | - | - |
| 1777482607 | 18.33° C | 1% | 985.9 hPa | - | - | - | - |
| 1777482306 | 18.89° C | 1% | 985.8 hPa | - | - | - | - |
| 1777481706 | 17.78° C | 1% | 985.3 hPa | - | - | - | - |
| 1777481404 | 17.78° C | 1% | 986.1 hPa | - | - | - | - |
| 1777480809 | 16.67° C | 1% | 985.8 hPa | - | - | - | - |
| 1777480509 | 17.22° C | 1% | 985.8 hPa | - | - | - | - |
| 1777480208 | 16.67° C | 1% | 986 hPa | - | - | - | - |
| 1777479908 | 16.11° C | 1% | 986.4 hPa | - | - | - | - |
| 1777479607 | 15.56° C | 1% | 985.3 hPa | - | - | - | - |
* Rain since midnight (hover to see other rain measurements)
** Current wind speed in m/s (hover to see current wind gust speed)